Temperature
12 12 12 12 11 11 11 11 11 11 11 11 11 10 10 10 10 10 9 9 9 9 9 9 9 9 8 8 8 8 8 8 8 8 8 8 8 8 8 8 8 8 8
12 12 11 11 11 11 11 11 11 11 11 10 10 10 10 10 10 9 9 9 9 9 9 9 8 8 8 8 8 8 8 8 8 8 8 8 8 8 8 8 8 8 8
11 11 11 11 11 11 11 11 11 10 10 10 10 10 10 9 9 9 9 9 9 9 8 8 8 8 8 8 8 8 8 7 7 7 7 7 7 7 7 7 7 7 7
11 11 11 11 11 11 10 10 10 10 10 10 10 10 9 9 9 9 9 9 8 8 8 8 8 8 8 8 8 7 7 7 7 7 7 7 7 7 7 7 7 7 7
10 10 10 10 10 10 10 10 10 10 10 10 10 10 9 9 9 9 8 8 8 8 8 8 8 7 7 7 7 7 7 7 7 7 7 7 7 6 6 6 6 6 6
10 10 10 10 10 10 10 10 10 10 9 9 9 9 9 9 9 8 8 8 8 8 8 8 8 7 7 7 7 7 7 7 7 6 6 6 6 6 6 6 6 6 6
10 10 9 9 9 9 9 9 9 9 9 9 9 9 9 9 8 8 8 8 8 8 8 8 7 7 7 7 7 6 6 6 6 6 6 6 6 6 6 6 6 6 6
9 9 9 9 9 9 9 9 9 9 9 9 9 9 9 8 8 8 8 8 7 7 7 7 7 7 7 7 6 6 6 6 6 6 6 6 6 6 5 5 5 5 5
9 9 9 9 8 8 8 9 9 9 9 9 8 8 8 8 8 8 7 7 7 7 7 7 7 7 7 6 6 6 6 6 6 6 6 5 5 5 5 5 5 5 5
9 8 8 8 8 8 8 8 8 8 8 8 8 8 8 8 8 7 7 7 7 7 7 7 7 6 6 6 6 6 6 6 6 6 6 6 5 5 5 5 5 5 5
8 8 8 8 8 8 8 8 8 8 8 8 7 7 7 7 7 7 7 7 7 7 7 7 6 6 6 6 6 6 6 6 5 5 5 5 5 5 5 5 5 5 5
8 8 8 7 7 7 7 7 7 7 7 7 7 7 7 7 7 7 7 6 6 6 6 6 6 6 6 6 6 5 5 5 5 5 5 5 5 5 5 5 5 5 4
7 7 7 7 7 7 7 7 7 7 7 7 7 7 7 7 7 6 6 6 6 6 6 6 6 6 6 6 5 5 5 5 5 5 5 5 5 5 5 5 4 4 4
7 7 7 7 7 7 6 6 6 6 6 6 6 6 6 6 6 6 6 6 6 6 5 5 5 5 5 5 5 5 5 5 5 5 5 4 4 4 4 4 4 4 4
6 6 6 6 6 6 6 6 6 6 6 6 6 6 6 6 6 6 5 5 5 5 5 5 5 5 5 5 5 5 5 4 4 4 4 4 4 4 4 4 4 4 4
6 6 6 6 6 6 6 6 6 5 5 5 5 5 5 5 5 5 5 5 5 5 5 5 5 5 5 5 5 4 4 4 4 4 4 4 4 4 4 4 4 4 4
5 5 5 5 5 5 5 5 5 5 5 5 5 5 5 5 5 5 5 5 5 4 4 4 4 4 4 4 4 4 4 4 4 4 4 4 4 3 3 3 3 3 3
5 5 5 5 5 5 5 5 4 5 5 5 5 5 5 4 4 4 4 4 4 4 4 4 4 4 4 4 4 4 4 4 4 4 4 3 3 3 3 3 3 3 3
5 5 5 4 4 4 4 4 4 4 4 4 4 4 4 4 4 4 4 4 4 4 4 4 4 4 4 4 4 4 4 4 3 3 3 3 3 3 3 3 3 3 3
4 4 4 4 4 4 4 4 4 4 4 4 4 4 4 4 4 4 3 3 3 3 4 4 4 4 4 4 4 3 3 3 3 3 3 3 3 3 3 2 2 3 3
4 4 4 4 4 4 3 3 3 3 3 3 3 3 3 3 3 3 3 3 3 3 3 3 4 3 3 3 3 3 3 3 3 3 3 3 3 2 2 2 2 2 2
4 3 3 3 3 3 3 3 3 3 3 3 3 3 3 3 3 3 3 3 3 3 3 3 3 3 3 3 3 3 3 3 3 3 2 2 2 2 2 2 2 2 2
3 3 3 3 3 3 3 3 2 2 2 2 2 2 2 2 2 2 2 2 2 3 3 3 3 3 3 3 3 3 3 3 3 2 2 2 2 2 2 2 2 2 2
3 3 3 3 3 2 2 2 2 2 2 2 2 2 2 2 2 2 2 2 2 2 2 2 2 3 3 3 3 3 3 2 2 2 2 2 2 2 1 2 2 2 1
2 2 2 2 2 2 2 2 2 2 2 2 2 1 1 1 1 1 1 1 1 2 2 2 2 2 2 3 3 3 2 2 2 2 2 1 1 1 1 1 1 1 1
2 2 2 2 2 2 2 2 2 1 1 1 1 1 1 1 1 1 1 1 1 1 1 2 2 2 2 2 2 2 2 2 2 2 2 1 1 1 1 1 1 1 1
Wind_Speed
1 1 1 1 1 1 1 2 2 2 3 3 3 3 2 2 2 2 1 1 1 1 1 0 0 0 0 0 1 1 1 1 2 2 2 2 2 3 5 5 5 5 5
1 1 1 1 1 1 1 1 1 2 2 3 3 3 3 2 2 2 2 1 2 1 1 1 1 0 0 0 0 1 1 1 2 2 2 2 2 2 3 3 4 4 4
1 1 1 1 1 1 2 1 1 2 2 2 3 3 3 3 2 2 2 2 2 2 2 2 2 1 1 1 1 1 1 1 1 2 2 2 2 2 3 3 3 4 4
1 1 1 1 2 2 2 1 2 2 3 3 2 2 3 3 3 3 3 2 2 1 2 2 2 3 3 2 2 2 2 1 1 1 1 2 2 2 1 2 3 3 3
2 2 2 2 1 1 1 2 1 2 3 3 2 2 1 2 3 4 3 3 2 2 2 2 3 3 4 3 2 3 3 2 1 1 1 2 2 1 2 2 3 3 3
3 3 2 1 1 1 2 2 2 2 2 2 3 2 2 2 3 5 4 3 3 3 2 3 3 4 4 4 3 3 3 3 3 2 2 3 4 3 2 2 2 2 3
3 2 2 2 2 2 2 1 2 3 3 3 3 3 3 4 4 4 4 3 3 3 3 3 3 3 2 2 2 2 3 4 5 4 4 5 5 5 3 3 3 3 4
3 3 2 2 3 2 1 2 3 3 3 4 4 3 3 4 5 4 4 3 3 3 4 4 4 3 3 2 2 2 3 4 4 4 5 6 6 5 5 5 4 3 3
3 4 4 3 3 3 3 3 3 3 3 4 3 3 4 5 5 4 3 2 2 3 4 4 4 4 6 3 2 3 3 4 5 6 6 6 7 6 4 2 2 2 3
5 5 4 3 4 4 5 4 3 3 4 4 3 4 4 4 5 5 4 2 2 3 3 4 6 6 6 5 3 3 4 5 4 3 3 4 4 4 5 4 4 4 3
4 3 2 3 4 4 4 3 3 3 3 3 3 3 4 5 5 6 5 3 4 3 3 4 5 7 7 7 6 5 7 5 3 3 3 3 3 3 3 4 5 5 5
2 2 2 2 3 2 2 2 3 3 3 3 3 3 3 4 5 6 6 5 4 4 4 4 5 7 7 7 6 6 6 4 2 2 3 3 3 4 4 4 5 6 6
1 2 2 2 2 2 2 2 2 2 3 3 3 4 4 3 4 6 7 7 6 4 4 6 6 6 5 5 6 6 4 2 2 3 4 4 4 4 3 3 3 3 3
2 2 2 2 2 2 2 2 2 3 3 4 4 4 4 3 3 3 4 5 5 5 4 4 5 4 3 4 4 3 3 3 3 4 4 3 2 2 2 2 2 2 2
2 2 2 2 2 3 3 3 4 4 5 5 5 5 5 5 7 7 5 4 4 5 2 1 1 1 2 2 2 2 3 2 3 3 3 3 2 2 3 2 2 2 2
2 3 2 2 2 2 2 3 4 4 6 7 7 6 6 8 8 7 7 7 7 5 3 2 3 4 4 4 4 4 3 4 4 3 3 3 3 3 3 2 2 3 3
3 3 2 2 2 2 2 3 4 4 5 5 6 7 7 7 7 6 7 7 6 5 4 4 5 5 5 5 5 4 5 5 4 4 4 4 4 3 3 3 3 3 3
3 4 3 3 3 3 3 3 3 3 4 4 4 6 6 7 7 6 6 4 3 4 4 5 5 5 5 5 5 5 5 4 4 4 4 4 4 3 3 4 4 4 4
3 3 3 3 3 3 3 3 3 3 3 4 3 4 5 5 6 6 5 4 4 5 5 5 6 6 5 6 6 5 5 5 5 4 4 4 4 4 4 4 4 5 4
3 5 3 2 2 2 2 3 3 3 3 3 4 4 3 2 2 3 4 4 5 5 6 6 6 6 6 6 6 5 5 5 5 5 5 4 4 4 5 5 5 4 4
3 3 4 2 2 3 3 3 3 3 4 4 4 5 5 3 4 4 4 5 5 6 6 6 6 6 6 5 5 5 6 5 5 5 5 5 4 4 4 4 4 4 4
2 2 2 3 3 3 3 3 3 3 4 4 4 4 6 3 3 4 4 5 5 5 5 5 6 6 6 6 6 6 6 6 5 5 5 5 4 4 4 4 3 4 4
3 3 3 3 3 3 3 2 3 3 4 4 4 4 3 4 4 4 4 5 4 4 5 5 5 5 5 6 6 6 6 6 6 5 5 5 5 4 4 4 4 4 4
3 3 3 3 3 2 3 3 3 3 4 4 4 4 4 4 4 4 4 4 4 4 4 4 5 6 6 6 6 6 7 7 7 6 6 5 5 4 4 4 4 4 4
2 3 3 3 3 3 3 3 3 3 4 4 4 4 4 4 4 4 4 4 4 4 4 4 4 5 6 7 6 6 7 7 6 6 6 5 5 5 4 4 4 4 4
2 3 2 2 2 2 3 3 3 4 4 4 4 4 4 4 4 4 4 3 3 4 4 4 5 6 6 6 7 7 7 6 6 6 5 4 4 4 4 4 5 4 4
Wind_Direction
191 182 156 192 188 158 172 205 200 174 159 155 155 150 144 133 124 121 124 119 109 50 8 85 343 339 69 46 91 105 110 143 213 284 291 307 328 338 346 357 2 6 1
179 147 159 173 170 166 196 217 178 166 160 158 150 154 157 148 144 155 165 157 162 187 230 205 259 205 39 313 153 166 184 177 186 252 295 306 309 315 328 336 353 350 352
147 140 133 155 180 201 215 209 179 155 144 138 149 163 175 170 171 178 179 185 188 203 207 203 219 179 219 251 218 208 216 200 183 212 276 291 301 318 333 330 336 339 340
157 167 199 233 228 219 202 191 184 167 161 166 167 177 186 184 184 188 183 189 199 219 225 223 219 210 211 212 216 209 197 186 191 210 266 292 293 297 318 318 321 325 323
180 204 239 260 271 231 194 192 188 178 180 175 170 176 179 193 195 188 190 193 195 214 243 248 245 240 235 226 228 205 187 188 195 221 258 296 286 283 278 280 294 306 306
198 224 241 239 255 261 229 205 196 200 188 169 184 196 205 228 219 199 185 184 191 202 236 261 268 263 260 254 246 228 209 204 210 221 244 253 260 254 254 267 273 307 296
216 232 236 223 225 243 246 217 215 213 198 193 203 210 224 237 228 216 204 181 197 215 226 241 266 270 274 245 256 259 259 252 229 215 221 236 242 238 226 245 243 247 256
236 244 247 235 233 241 235 235 233 222 209 210 215 219 228 246 236 225 216 180 207 227 230 229 233 249 255 228 223 255 264 266 252 236 227 236 238 232 216 225 230 246 272
243 248 248 236 228 226 232 241 243 228 218 217 217 212 222 249 239 226 211 181 218 245 246 243 235 238 251 243 217 243 266 277 277 263 260 258 255 248 220 193 222 243 268
252 253 249 237 232 232 232 236 239 231 224 216 220 219 221 239 244 239 221 189 217 246 258 257 256 250 252 242 220 223 249 264 270 282 294 294 279 250 224 214 214 228 248
268 263 250 245 244 242 238 228 222 223 222 223 226 231 228 239 248 243 234 203 214 230 248 256 258 259 255 249 243 234 249 257 249 242 263 277 279 262 249 237 225 217 223
260 260 262 258 258 260 237 242 224 206 212 226 229 246 247 249 248 250 248 243 236 220 240 246 252 260 260 257 252 257 262 262 241 247 257 264 263 259 258 254 243 235 232
247 261 272 273 267 256 237 239 244 219 212 226 227 240 254 250 255 256 254 253 249 241 242 253 258 255 257 259 257 261 259 238 236 246 249 257 257 254 263 272 268 253 250
256 271 274 266 273 272 258 238 229 228 233 234 232 238 247 249 247 250 252 256 255 251 251 261 264 254 248 255 262 260 249 238 238 245 253 258 262 261 264 264 260 251 260
266 270 273 265 259 262 260 247 242 234 228 233 232 228 230 243 244 243 241 243 239 233 218 206 237 267 262 262 265 260 257 257 260 257 250 255 262 263 268 264 249 235 236
261 267 259 256 259 261 268 290 283 263 264 260 252 243 244 248 253 251 252 254 251 230 201 218 232 236 240 244 250 258 256 253 253 252 250 245 247 254 262 266 255 234 238
247 256 255 252 253 258 262 264 285 295 286 277 267 261 259 260 254 252 252 249 241 214 214 227 233 236 241 243 245 247 253 254 247 242 245 246 245 248 250 251 254 251 249
252 253 252 246 248 250 256 259 264 278 293 298 288 272 269 266 260 253 247 234 245 230 228 233 238 239 239 240 243 248 252 255 246 238 239 242 241 240 244 246 245 247 246
254 250 246 243 246 250 256 260 267 272 278 286 303 300 289 280 267 254 234 221 233 241 237 239 239 239 241 242 245 246 246 247 245 239 233 237 239 238 243 247 246 248 246
257 264 262 249 248 256 260 258 262 268 272 276 280 286 297 291 268 260 243 239 238 244 244 242 242 241 242 243 244 243 244 247 246 240 237 234 235 236 240 243 241 240 242
260 264 268 264 252 254 259 258 261 263 267 271 273 277 280 264 261 257 254 252 248 247 248 247 244 241 241 241 238 236 238 243 243 241 240 238 232 236 241 242 243 244 244
248 250 245 245 251 252 257 256 259 264 267 271 283 285 282 275 265 264 263 265 260 258 256 250 244 240 237 234 234 232 234 238 239 240 238 236 236 235 237 241 243 247 243
251 253 255 258 253 261 265 262 262 264 270 273 279 284 282 273 271 272 274 272 272 268 262 258 254 254 251 244 238 231 230 235 234 230 231 231 231 232 230 234 237 243 240
252 251 252 259 258 249 252 261 266 268 270 272 272 273 275 273 276 278 280 286 288 284 276 266 259 259 258 256 249 242 238 242 239 231 224 225 227 230 232 235 235 234 233
250 253 257 256 256 259 264 268 270 272 275 273 271 273 276 276 277 281 285 289 292 294 291 283 276 273 269 262 257 250 247 248 247 237 225 221 223 225 227 233 234 230 230
253 258 256 257 261 258 259 265 268 272 272 273 272 272 272 272 275 280 285 288 290 292 292 289 285 283 282 274 269 263 257 253 252 247 229 219 219 223 223 230 230 224 223
Height
1519 1520 1520 1520 1520 1520 1520 1520 1520 1520 1520 1520 1520 1520 1520 1520 1520 1520 1520 1520 1520 1520 1520 1520 1520 1519 1519 1519 1519 1519 1519 1519 1518 1517 1517 1516 1515 1515 1514 1514 1513 1512 1511
1517 1517 1517 1518 1518 1517 1518 1518 1518 1518 1518 1519 1519 1519 1519 1519 1519 1519 1519 1519 1518 1518 1518 1518 1518 1518 1518 1518 1518 1518 1517 1517 1517 1515 1515 1514 1514 1513 1512 1511 1511 1510 1510
1515 1515 1515 1515 1515 1515 1515 1516 1516 1516 1517 1517 1517 1517 1517 1517 1517 1517 1517 1517 1517 1517 1516 1516 1516 1516 1516 1516 1516 1515 1515 1515 1515 1514 1513 1512 1511 1511 1510 1509 1509 1508 1507
1513 1513 1513 1512 1512 1513 1513 1513 1514 1514 1515 1515 1515 1515 1516 1516 1516 1516 1516 1515 1515 1515 1515 1514 1514 1514 1513 1513 1513 1513 1513 1512 1512 1511 1510 1509 1509 1508 1507 1506 1505 1505 1505
1511 1510 1510 1510 1510 1510 1511 1511 1511 1512 1512 1512 1513 1513 1513 1514 1514 1514 1514 1513 1513 1513 1512 1512 1512 1511 1511 1511 1511 1511 1510 1510 1509 1508 1508 1507 1506 1505 1505 1504 1503 1502 1502
1508 1508 1508 1508 1508 1508 1508 1508 1508 1509 1509 1510 1510 1510 1511 1511 1511 1511 1511 1511 1511 1510 1510 1509 1509 1509 1508 1508 1508 1508 1508 1507 1506 1505 1505 1504 1503 1503 1502 1502 1501 1500 1499
1505 1505 1505 1505 1505 1505 1505 1505 1505 1506 1506 1506 1507 1507 1508 1508 1508 1509 1508 1508 1508 1507 1507 1506 1506 1506 1505 1505 1505 1504 1504 1504 1504 1503 1502 1501 1501 1500 1500 1499 1498 1497 1497
1503 1502 1502 1502 1502 1501 1502 1502 1502 1502 1503 1503 1504 1504 1504 1505 1505 1505 1505 1505 1505 1504 1504 1503 1503 1503 1502 1502 1501 1501 1500 1500 1500 1499 1499 1498 1498 1497 1497 1496 1495 1494 1494
1500 1499 1499 1499 1498 1498 1498 1498 1498 1498 1499 1499 1500 1501 1501 1501 1502 1502 1502 1501 1501 1501 1500 1500 1499 1499 1499 1499 1498 1497 1496 1496 1496 1495 1495 1494 1494 1493 1493 1492 1492 1491 1490
1497 1496 1496 1495 1495 1494 1494 1494 1494 1495 1495 1496 1496 1497 1497 1497 1498 1498 1498 1497 1497 1497 1496 1496 1496 1495 1495 1495 1494 1493 1492 1492 1491 1490 1490 1490 1489 1489 1489 1488 1488 1487 1486
1494 1493 1492 1491 1491 1491 1490 1490 1490 1491 1491 1491 1492 1492 1493 1493 1494 1494 1494 1493 1493 1492 1492 1492 1491 1491 1491 1491 1490 1490 1489 1488 1487 1486 1486 1485 1484 1484 1484 1484 1483 1483 1482
1490 1489 1489 1488 1487 1487 1487 1486 1487 1487 1487 1487 1487 1487 1488 1489 1489 1489 1489 1490 1489 1489 1488 1488 1487 1487 1486 1486 1486 1485 1485 1484 1483 1482 1481 1480 1480 1479 1479 1479 1478 1477 1477
1487 1486 1485 1484 1484 1484 1483 1482 1482 1482 1482 1482 1482 1483 1483 1484 1484 1485 1485 1485 1485 1484 1484 1484 1483 1483 1482 1481 1481 1481 1480 1480 1479 1478 1477 1476 1476 1475 1474 1474 1472 1472 1472
1483 1482 1481 1481 1480 1480 1479 1479 1478 1478 1478 1478 1478 1478 1478 1479 1479 1479 1479 1479 1479 1479 1479 1479 1479 1478 1477 1477 1477 1476 1475 1475 1474 1473 1472 1472 1471 1471 1470 1469 1468 1467 1467
1480 1479 1478 1477 1477 1476 1475 1475 1474 1474 1474 1474 1474 1474 1474 1473 1474 1475 1474 1474 1474 1474 1474 1474 1473 1473 1472 1472 1472 1471 1471 1470 1469 1469 1468 1467 1467 1466 1465 1465 1464 1463 1462
1477 1476 1475 1474 1473 1472 1472 1471 1470 1470 1470 1470 1470 1470 1469 1469 1469 1469 1469 1469 1469 1469 1469 1468 1468 1467 1467 1467 1466 1466 1466 1465 1465 1464 1463 1463 1462 1461 1461 1460 1460 1459 1458
1474 1473 1472 1471 1470 1469 1468 1467 1466 1466 1465 1465 1465 1465 1464 1464 1464 1464 1464 1464 1464 1464 1463 1462 1462 1462 1462 1462 1461 1461 1461 1460 1460 1459 1459 1458 1457 1457 1456 1456 1455 1454 1454
1471 1470 1469 1468 1467 1466 1464 1463 1462 1461 1461 1460 1460 1460 1459 1459 1459 1459 1459 1459 1458 1457 1457 1457 1457 1457 1457 1457 1456 1456 1456 1455 1455 1454 1454 1453 1453 1452 1452 1451 1450 1450 1449
1468 1467 1466 1465 1464 1462 1461 1460 1459 1458 1457 1456 1455 1455 1455 1454 1454 1454 1453 1453 1452 1452 1452 1452 1452 1452 1452 1452 1451 1451 1451 1450 1450 1449 1448 1448 1448 1447 1447 1446 1446 1445 1445
1465 1464 1463 1461 1460 1459 1458 1457 1456 1455 1454 1453 1451 1451 1450 1450 1449 1448 1448 1447 1447 1447 1447 1447 1447 1447 1447 1447 1446 1446 1445 1445 1445 1444 1443 1443 1442 1442 1441 1441 1440 1440 1440
1461 1460 1459 1458 1457 1456 1455 1453 1452 1451 1450 1449 1448 1448 1447 1445 1444 1444 1443 1443 1442 1442 1442 1442 1441 1441 1441 1441 1441 1440 1440 1439 1439 1439 1439 1438 1437 1437 1437 1436 1436 1435 1434
1458 1457 1456 1455 1454 1452 1451 1450 1449 1448 1447 1446 1445 1444 1443 1442 1440 1440 1439 1438 1438 1437 1437 1437 1436 1436 1436 1436 1435 1435 1434 1434 1434 1434 1434 1433 1433 1432 1432 1431 1431 1430 1430
1455 1454 1453 1452 1451 1449 1448 1447 1446 1445 1444 1442 1441 1440 1439 1438 1437 1436 1435 1434 1433 1433 1432 1432 1431 1430 1430 1430 1430 1429 1429 1429 1429 1429 1428 1428 1428 1427 1427 1427 1426 1426 1425
1452 1451 1449 1448 1447 1446 1445 1444 1443 1442 1441 1439 1438 1437 1435 1434 1433 1432 1431 1430 1429 1428 1427 1427 1426 1426 1425 1425 1424 1424 1423 1423 1423 1423 1424 1423 1423 1423 1423 1422 1422 1422 1421
1449 1447 1446 1445 1444 1443 1442 1441 1440 1439 1437 1436 1435 1434 1433 1431 1430 1429 1427 1426 1425 1424 1423 1423 1422 1421 1420 1420 1419 1419 1418 1418 1418 1419 1419 1419 1419 1419 1419 1418 1418 1418 1418
1445 1444 1443 1442 1441 1440 1439 1437 1436 1435 1434 1433 1432 1431 1430 1428 1427 1426 1424 1423 1421 1420 1419 1418 1418 1417 1416 1415 1415 1414 1414 1414 1414 1414 1414 1414 1414 1414 1414 1414 1414 1414 1414